Rexburg, ID

12:22 PM MDT on September 30, 2016 (GMT -0600)
Rexburg-Madison County

Weather History for KRXE - January, 2014

Change the Weather History Date:

Wednesday, January 15, 2014

  Actual Average Record
Temperature  
Mean Temperature 23 °F 20 °F  
Max Temperature 32 °F 29 °F 44 °F (2012)
Min Temperature 14 °F 12 °F -16 °F (2007)
Degree Days  
Heating Degree Days 42 45  
Month to date heating degree days 637 675  
Since 1 July heating degree days 3976 4057  
Cooling Degree Days 0 0  
Month to date cooling degree days 0 0  
Year to date cooling degree days 0 0  
Moisture  
Dew Point 20 °F    
Average Humidity 86    
Maximum Humidity 96    
Minimum Humidity 75    
Precipitation  
Precipitation 0.00 in 0.02 in 0.31 in (1979)
Month to date precipitation 0.46 0.44  
Year to date precipitation 0.46 0.44  
Sea Level Pressure  
Sea Level Pressure 30.58 in    
Wind  
Wind Speed 4 mph (South)    
Max Wind Speed 15 mph    
Max Gust Speed 19 mph    
Visibility 10 miles    
Events      
T = Trace of Precipitation, MM = Missing Value Source: NWS Daily Summary

Daily Weather History Graph

Daily Weather History Graph

Search for Another Location

Airport or City:

Trip Planner

Search our weather history database for the weather conditions in past years. The results will help you decide how hot, cold, wet, or windy it might be!

Date:

Astronomy

Jan. 15, 2014 Rise Set
Actual Time 7:58 AM MST 5:15 PM MST
Civil Twilight 7:26 AM MST 5:47 PM MST
Nautical Twilight 6:50 AM MST 6:23 PM MST
Astronomical Twilight 6:16 AM MST 6:57 PM MST
Moon 5:18 PM MST (1/15) 7:14 AM MST (1/15)
Length of Visible Light 10h 21m
Length of Day
9h 17m
Full, 100% of the Moon is Illuminated
Jan 15
Full
Jan 15
Full
Jan 23
Last Quarter
Jan 30
New
Feb 6
First Quarter

Hourly Weather History & Observations

Time (MST) Temp. Windchill Dew Point Humidity Pressure Visibility Wind Dir Wind Speed Gust Speed Precip Events Conditions
12:53 AM 26.1 °F - 23.0 °F 88% 30.62 in 10.0 mi Calm Calm - N/A   Overcast
1:37 AM 24.1 °F 19.7 °F 21.0 °F 88% 30.52 in 10.0 mi NNE 3.5 mph - N/A   Scattered Clouds
1:53 AM 24.1 °F 19.7 °F 21.9 °F 91% 30.61 in 10.0 mi SE 3.5 mph - N/A   Clear
2:39 AM 25.0 °F 19.3 °F 21.0 °F 85% 30.51 in 10.0 mi South 4.6 mph - N/A   Mostly Cloudy
2:53 AM 26.1 °F 21.9 °F 21.0 °F 81% 30.60 in 10.0 mi SSW 3.5 mph - N/A   Overcast
3:53 AM 27.0 °F 19.5 °F 21.0 °F 78% 30.60 in 10.0 mi South 6.9 mph - N/A   Overcast
4:22 AM 26.1 °F 18.4 °F 21.0 °F 81% 30.50 in 10.0 mi SSW 6.9 mph - N/A   Overcast
4:53 AM 27.0 °F 18.7 °F 21.0 °F 78% 30.59 in 10.0 mi SSW 8.1 mph - N/A   Overcast
5:53 AM 25.0 °F 18.1 °F 21.0 °F 85% 30.61 in 10.0 mi SSW 5.8 mph - N/A   Overcast
6:53 AM 25.0 °F 20.7 °F 21.0 °F 85% 30.63 in 10.0 mi WSW 3.5 mph - N/A   Overcast
7:53 AM 25.0 °F 16.3 °F 19.9 °F 81% 30.64 in 10.0 mi South 8.1 mph - N/A   Overcast
8:01 AM 25.0 °F 16.3 °F 19.0 °F 78% 30.50 in 10.0 mi South 8.1 mph - N/A   Overcast
8:53 AM 25.0 °F 17.1 °F 19.9 °F 81% 30.66 in 10.0 mi South 6.9 mph - N/A   Overcast
9:53 AM 26.1 °F 17.6 °F 19.9 °F 78% 30.67 in 10.0 mi South 8.1 mph - N/A   Overcast
10:53 AM 27.0 °F 20.5 °F 21.0 °F 78% 30.66 in 10.0 mi SSW 5.8 mph - N/A   Overcast
11:53 AM 28.9 °F 21.1 °F 24.1 °F 82% 30.59 in 10.0 mi WSW 8.1 mph - N/A   Overcast
12:53 PM 30.0 °F 21.1 °F 25.0 °F 82% 30.56 in 10.0 mi WSW 10.4 mph - N/A   Overcast
1:53 PM 30.0 °F 26.5 °F 25.0 °F 82% 30.57 in 10.0 mi Variable 3.5 mph - N/A   Overcast
2:53 PM 30.0 °F - 25.0 °F 82% 30.55 in 10.0 mi Calm Calm - N/A   Mostly Cloudy
3:07 PM 30.9 °F - 25.0 °F 79% 30.44 in 10.0 mi Calm Calm - N/A   Scattered Clouds
3:53 PM 30.0 °F 25.2 °F 25.0 °F 82% 30.54 in 10.0 mi NE 4.6 mph - N/A   Partly Cloudy
4:53 PM 28.0 °F - 23.0 °F 81% 30.53 in 10.0 mi Calm Calm - N/A   Partly Cloudy
5:53 PM 25.0 °F 17.1 °F 21.9 °F 88% 30.59 in 10.0 mi East 6.9 mph - N/A   Clear
6:53 PM 23.0 °F - 19.0 °F 85% 30.58 in 8.0 mi Calm Calm - N/A   Clear
7:53 PM 19.9 °F - 18.0 °F 92% 30.58 in 9.0 mi Calm Calm - N/A   Clear
8:53 PM 17.1 °F - 15.1 °F 92% 30.60 in 7.0 mi Calm Calm - N/A   Clear
9:53 PM 14.0 °F 8.2 °F 12.0 °F 92% 30.62 in 8.0 mi ENE 3.5 mph - N/A   Clear
10:40 PM 14.0 °F 3.9 °F 12.9 °F 95% 30.46 in 6.0 mi ENE 6.9 mph - N/A   Mostly Cloudy
10:53 PM 14.0 °F 6.5 °F 12.9 °F 95% 30.63 in 7.0 mi East 4.6 mph - N/A   Overcast
11:15 PM 16.0 °F 10.4 °F 12.9 °F 88% 30.47 in 9.0 mi East 3.5 mph - N/A   Overcast
11:53 PM 16.0 °F - 12.9 °F 88% 30.60 in 10.0 mi Calm Calm - N/A   Overcast